{"data":{"norad_id":48148,"epoch":"2026-05-25T01:11:04.437888Z","epoch_age_seconds":74718,"freshness":"FRESH","line1":"1 48148U 21027BJ  26145.04935692 -.00002482  00000+0 -68240-4 0  9994","line2":"2 48148  53.1603 170.5633 0001201  94.1566 265.9573 15.31696454284190","mean_motion":15.31696454,"eccentricity":0.0001201,"inclination_deg":53.1603,"raan_deg":170.5633,"arg_perigee_deg":94.1566,"mean_anomaly_deg":265.9573,"bstar":-6.824e-5,"rev_number":28419,"period_min":94.013405609151,"perigee_km":469.92801429088,"apogee_km":471.57311708416,"semimajor_km":6848.8875656875,"source":"CELESTRAK","updated_at":"2026-05-25T13:38:16.651635Z"}}